This is the latest recevied weather packets stored in our database for station/object KM4NDN. If no packets are shown the sender has not sent any weather packets the latest 10 day(s).
| Time | Temp. | Humidity | Pressure | Rain* | Wind** | Luminosity | Snow |
|---|---|---|---|---|---|---|---|
| 1777520461 | 7.22° C | 95% | 1010.4 hPa | 0 mm | - | 0 W/m² | - |
| 1777520158 | 6.67° C | 94% | 1010.5 hPa | 0 mm | - | 0 W/m² | - |
| 1777519856 | 6.67° C | 94% | 1010.7 hPa | 0 mm | - | 0 W/m² | - |
| 1777519553 | 6.67° C | 94% | 1010.5 hPa | 1.27 mm | - | 0 W/m² | - |
| 1777519249 | 6.67° C | 94% | 1010.9 hPa | 1.78 mm | - | 0 W/m² | - |
| 1777518945 | 6.67° C | 93% | 1010.7 hPa | 1.78 mm | - | 0 W/m² | - |
| 1777518641 | 7.22° C | 93% | 1010.8 hPa | 1.27 mm | - | 0 W/m² | - |
| 1777518338 | 7.22° C | 93% | 1010.4 hPa | 1.27 mm | - | 0 W/m² | - |
| 1777518034 | 7.22° C | 92% | 1010.7 hPa | 1.78 mm | - | 0 W/m² | - |
| 1777517730 | 7.22° C | 92% | 1010.7 hPa | 0 mm | - | 0 W/m² | - |
| 1777517426 | 7.22° C | 92% | 1010.5 hPa | 0 mm | - | 0 W/m² | - |
| 1777517126 | 7.22° C | 92% | 1010.6 hPa | 0 mm | - | 0 W/m² | - |
| 1777516823 | 7.22° C | 92% | 1010.6 hPa | 0 mm | - | 0 W/m² | - |
| 1777516519 | 7.22° C | 92% | 1010.3 hPa | 0 mm | - | 0 W/m² | - |
| 1777516215 | 7.22° C | 91% | 1010.4 hPa | 0 mm | - | 0 W/m² | - |
| 1777515912 | 7.22° C | 91% | 1010.4 hPa | 1.27 mm | - | 0 W/m² | - |
| 1777515608 | 7.22° C | 92% | 1010.4 hPa | 1.27 mm | - | 0 W/m² | - |
| 1777515306 | 7.22° C | 92% | 1010.2 hPa | 0 mm | - | 0 W/m² | - |
| 1777515001 | 7.22° C | 92% | 1010.4 hPa | 0 mm | - | 0 W/m² | - |
| 1777514698 | 7.22° C | 92% | 1010.5 hPa | 0 mm | - | 0 W/m² | - |
| 1777514395 | 7.22° C | 92% | 1010.1 hPa | 0 mm | - | 0 W/m² | - |
| 1777514091 | 7.22° C | 92% | 1010.1 hPa | 0 mm | - | 0 W/m² | - |
| 1777513789 | 7.78° C | 93% | 1010.5 hPa | 0 mm | - | 0 W/m² | - |
| 1777513486 | 7.78° C | 94% | 1010.1 hPa | 0 mm | - | 0 W/m² | - |
| 1777513183 | 7.78° C | 94% | 1010.3 hPa | 0 mm | - | 0 W/m² | - |
* Rain latest hour (hover to see other rain measurements)
** Current wind speed in m/s (hover to see current wind gust speed)